Location: Berlin
(52.5170°N, 13.4000°E)
Time: 00:37:59
(UTC+02:00)

ISS - Pass Details

Date: 16 July 2018
Orbit: 402 x 408 km, 51.6° (Epoch: 19 July)

Event Time Altitude Azimuth Distance (km) Brightness Sun altitude
Exits shadow 02:31:53 13° 256° (WSW) 1,279 -1.6 -14.1°
Maximum altitude 02:34:42 73° 173° (S) 431 -3.9 -13.9°
Drops below altitude 10° 02:37:59 10° 88° (E) 1,473 -0.7 -13.8°
Sets 02:40:05 0° 87° (E) 2,335 0.4 -13.7°
